Location: Sunny Point
(33.0946°N, 85.0574°W)
Time: 13:33:29
(UTC+00:00)

AO-73 - Visible Passes

Search period start: 16 June 2025 00:00
Search period end: 26 June 2025 00:00
Orbit: 530 x 589 km, 97.8° (Epoch: 15 June)

Date Brightness Start Highest point End Pass type
(mag) Time Alt. Az. Time Alt. Az. Time Alt. Az.
16 Jun ? 08:45:06 10° NNE 08:49:12 69° ESE 08:51:28 25° S visible
17 Jun ? 08:43:41 10° NNE 08:47:47 65° E 08:50:02 25° S visible
18 Jun ? 08:42:16 10° NNE 08:46:21 62° E 08:48:37 25° S visible
19 Jun ? 08:40:50 10° NNE 08:44:55 59° E 08:47:09 25° S visible
20 Jun ? 08:39:24 10° NNE 08:43:28 57° E 08:45:41 25° S visible
21 Jun ? 08:37:57 10° NNE 08:42:00 54° E 08:44:12 25° SSE visible
22 Jun ? 08:36:30 10° NNE 08:40:33 51° E 08:42:43 25° SSE visible
23 Jun ? 08:35:02 10° NNE 08:39:04 49° E 08:41:13 25° SSE visible
24 Jun ? 08:33:34 10° NNE 08:37:35 47° E 08:39:41 25° SSE visible
25 Jun ? 08:32:05 10° NNE 08:36:04 45° E 08:38:10 24° SSE visible
